CAPE
1772 353 1438 1584 1561 1738 1732 1532 1399 1467 1518 1488 1412 1292 1200 1126 1191 1332 1372 1278 1071 1006 934 890 877 733 617 525 421 332 257 171 199 154 100 79 85 102 127 115 81 76 90
2249 1944 1734 1808 1567 1572 1706 1875 2024 1813 1613 1505 1505 1561 1568 1531 1451 1541 1257 1300 1146 1077 1035 994 1058 911 891 678 534 406 416 325 376 400 296 259 231 221 158 129 144 144 107
2383 2477 2344 2088 1935 1887 1789 1545 1642 1867 1974 1915 1735 1567 1480 1490 1522 1672 1710 1440 1347 1314 1369 1342 1371 1251 1157 888 844 750 671 650 570 457 330 319 342 279 259 174 135 142 246
1208 2426 2539 2478 2308 2288 2366 2298 2267 2097 2122 2105 1926 1859 1696 1768 1982 1809 1843 1685 1533 1551 1610 1669 1626 1432 1174 1047 1024 988 913 779 531 424 376 346 342 366 273 263 144 115 115
1793 2491 2669 2720 2734 2682 2705 2746 2705 2651 2613 2517 2440 2207 2058 2281 2129 2023 2020 1932 1862 1835 1822 1875 1677 1551 1321 1202 1119 1016 998 809 645 577 630 608 527 425 357 139 140 145 148
2589 2959 3049 2941 2905 2850 2842 2907 2838 2825 2823 2675 2534 2430 2236 2202 2400 2273 2303 2226 2148 2049 1933 1922 1820 1759 1417 1311 1185 1231 1153 1019 893 842 775 691 569 390 332 205 124 64 166
2433 2541 1981 2253 2475 2837 2901 2929 2847 2850 2779 2644 2699 2597 2471 2399 2355 2454 2376 2527 2242 2074 1832 1903 1862 1780 1505 1417 1309 1330 1067 1139 1217 1072 984 842 731 519 449 112 82 62 161
1993 2142 1331 896 2338 2505 2509 2703 2815 2791 2820 2719 2684 2614 2589 2599 2512 2542 2514 2340 2317 2074 1845 1810 1615 1362 1403 1259 1184 1225 962 895 887 886 941 1008 952 691 272 149 135 171 211
821 626 615 784 942 1189 1758 2471 2600 2611 2634 2649 2647 2655 2534 2576 2482 2511 2395 2253 2151 1875 1893 1719 1474 1367 1346 1320 1293 1143 1073 1089 917 796 711 617 490 360 309 240 202 195 206
311 355 390 456 446 271 443 1402 2090 2823 2718 2639 2636 2622 2546 2486 2411 2505 2350 2326 2111 1792 1678 1738 1579 1539 1411 1115 1031 1094 1105 1098 1131 1023 940 567 288 312 209 242 228 216 170
103 20 11 4 0 12 370 517 909 2470 3312 2890 2864 2647 2606 2392 2302 2277 2174 2452 2329 1828 1625 1595 1695 1512 1384 1221 1048 1070 1123 1102 1002 871 777 602 464 392 180 68 129 188 139
6 1 0 1 5 75 356 441 537 1427 3233 3055 2895 2147 1340 1177 725 359 497 1080 2196 1951 1735 1597 1467 946 885 803 579 729 661 534 611 634 616 546 396 351 277 158 85 63 101
0 0 0 0 0 83 158 274 591 1140 2340 2725 2100 1509 639 440 159 5 1 45 304 1645 1604 1606 911 646 605 543 392 333 185 257 295 363 363 297 202 148 67 22 41 78 62
57 11 0 0 0 7 193 147 34 684 1666 1801 1490 1118 504 343 332 416 29 10 69 252 427 734 431 366 414 384 283 163 184 190 222 224 214 114 64 1 7 0 0 0 21
57 0 0 0 0 0 75 18 7 114 724 1282 1250 825 705 616 433 121 1 0 58 218 248 338 421 491 499 420 309 242 179 236 210 141 118 59 0 0 0 0 0 0 0
13 0 0 0 0 0 19 65 0 0 192 430 490 868 391 202 72 49 1 73 73 142 244 428 302 232 331 341 251 170 108 87 14 0 0 0 0 0 0 0 0 0 0
27 0 0 0 0 0 0 96 63 63 3 372 356 305 146 22 0 0 0 3 8 149 455 204 79 116 95 81 80 23 0 0 1 0 0 0 0 0 0 0 0 0 0
0 0 0 0 0 0 0 42 221 312 547 539 20 115 0 0 0 0 0 12 75 206 128 72 38 26 0 0 0 0 0 0 0 0 0 0 0 0 0 0 0 0 0
65 0 0 0 0 0 0 3 283 298 360 220 13 7 0 0 0 0 2 249 243 81 6 0 0 0 0 0 0 0 0 0 0 0 0 0 0 0 0 0 0 0 0
72 0 0 0 0 0 0 116 257 318 223 81 96 43 0 0 0 6 36 9 1 0 0 0 0 0 0 0 0 0 0 0 0 0 0 0 0 0 0 0 0 0 0
8 1 0 0 0 0 28 29 248 277 174 56 49 0 0 5 1 0 0 0 0 0 0 0 0 0 0 0 0 0 0 0 0 0 0 0 0 0 0 0 0 0 0
0 0 1 2 2 5 207 93 222 171 51 0 0 0 1 0 0 0 0 0 0 0 0 0 0 0 0 0 0 0 0 0 0 0 0 0 0 0 0 0 0 0 0
2 5 5 5 3 4 172 134 167 21 1 0 1 0 0 0 0 0 0 0 0 0 0 0 0 0 0 0 0 0 0 0 0 0 0 0 0 0 0 0 0 0 0
3 2 7 9 6 26 73 112 22 1 0 1 1 0 0 0 0 0 0 0 0 0 0 0 0 0 0 0 0 0 0 0 0 0 0 0 0 0 0 0 0 0 0
3 2 2 1 23 58 88 3 2 3 2 1 2 0 0 0 0 0 0 0 0 0 0 0 0 0 0 0 0 0 0 0 0 0 0 0 0 0 0 0 0 0 0
4 7 6 7 123 74 3 2 2 2 2 2 1 0 0 0 0 0 0 0 0 0 0 0 0 0 0 0 0 0 0 0 0 0 0 0 0 0 0 0 0 0 0
CIN
-179 -340 -196 -140 -179 -142 -110 -92 -103 -98 -89 -82 -86 -87 -84 -88 -94 -98 -55 -60 -32 -31 -44 -33 -32 -43 -37 -42 -67 -63 -47 -45 -24 -42 -50 -30 -51 -55 -52 -47 -66 -75 -80
-162 -144 -152 -155 -174 -165 -140 -120 -92 -78 -93 -86 -82 -70 -73 -72 -76 -76 -41 -58 -41 -35 -30 -33 -29 -40 -32 -40 -53 -50 -29 -47 -18 -15 -47 -30 -25 -52 -48 -40 -44 -45 -59
-174 -145 -144 -149 -148 -132 -152 -175 -140 -106 -73 -72 -87 -94 -96 -86 -68 -61 -52 -46 -42 -32 -25 -23 -21 -22 -20 -45 -46 -39 -33 -21 -25 -39 -51 -48 -19 -44 -37 -46 -50 -48 -38
-268 -205 -161 -141 -139 -120 -123 -130 -123 -135 -111 -97 -111 -107 -109 -87 -67 -61 -47 -47 -38 -29 -23 -19 -19 -23 -14 -34 -37 -36 -43 -48 -76 -82 -71 -57 -62 -47 -75 -31 -45 -72 -69
-204 -205 -177 -159 -140 -118 -108 -110 -111 -119 -125 -112 -103 -117 -114 -72 -63 -60 -42 -29 -26 -25 -20 -21 -22 -21 -13 -22 -25 -44 -49 -70 -95 -85 -50 -36 -37 -34 -32 -90 -85 -78 -79
-206 -150 -123 -115 -110 -116 -114 -112 -109 -119 -127 -128 -118 -112 -107 -90 -54 -42 -18 -20 -28 -26 -23 -24 -24 -19 -19 -17 -23 -22 -35 -61 -75 -81 -80 -62 -47 -56 -53 -70 -94 -121 -85
-124 -109 -86 -61 -83 -107 -117 -120 -124 -121 -114 -121 -116 -107 -98 -87 -73 -35 -23 -21 -19 -19 -30 -24 -20 -25 -24 -17 -23 -20 -36 -30 -31 -49 -57 -74 -65 -55 -41 -108 -117 -122 -72
-101 -98 -144 -153 -57 -105 -133 -116 -123 -132 -130 -110 -117 -116 -100 -78 -63 -37 -27 -43 -33 -43 -50 -41 -51 -74 -65 -72 -77 -55 -76 -81 -57 -45 -44 -32 -47 -68 -117 -127 -109 -79 -69
-226 -230 -228 -255 -267 -223 -138 -99 -129 -154 -163 -153 -123 -106 -104 -84 -84 -57 -37 -39 -34 -32 -32 -30 -47 -46 -49 -54 -46 -59 -58 -40 -54 -73 -63 -63 -72 -89 -116 -138 -95 -51 -51
-363 -363 -343 -354 -385 -416 -366 -206 -110 -67 -138 -162 -152 -141 -121 -98 -90 -60 -65 -66 -67 -84 -100 -87 -75 -42 -25 -48 -59 -48 -30 -37 -22 -27 -34 -61 -109 -95 -126 -141 -129 -61 -41
-423 -456 -355 -374 -0 -218 -467 -405 -329 -74 -32 -77 -104 -121 -104 -116 -68 -60 -56 -22 -29 -55 -71 -64 -42 -51 -38 -28 -28 -18 -16 -20 -22 -31 -34 -40 -53 -58 -84 -183 -135 -93 -104
-176 -202 -0 -224 -537 -470 -411 -426 -366 -169 -13 -31 -30 -101 -262 -234 -315 -389 -310 -145 -31 -19 -21 -31 -26 -77 -92 -100 -103 -56 -51 -59 -44 -31 -35 -39 -38 -36 -36 -49 -99 -145 -119
-0 -0 -0 -0 -0 -397 -407 -393 -331 -164 -36 -12 -57 -155 -319 -396 -451 -218 -50 -439 -187 -26 -32 -25 -71 -92 -110 -119 -136 -130 -148 -99 -62 -54 -31 -40 -61 -53 -75 -99 -92 -102 -139
-279 -324 -0 -0 -0 -195 -346 -398 -502 -227 -64 -60 -114 -172 -294 -223 -170 -130 -155 -261 -182 -153 -80 -76 -136 -135 -128 -124 -145 -169 -133 -97 -56 -30 -22 -33 -42 -8 -53 -0 -0 -0 -126
-200 -0 -0 -0 -0 -0 -403 -537 -598 -475 -250 -98 -137 -215 -225 -212 -212 -240 -44 -0 -142 -67 -46 -48 -86 -84 -74 -84 -82 -76 -86 -28 -35 -35 -67 -28 -10 -0 -0 -0 -0 -0 -0
-139 -0 -0 -0 -0 -0 -492 -438 -0 -0 -494 -349 -321 -180 -302 -383 -447 -433 -206 -348 -171 -111 -70 -33 -58 -97 -65 -43 -50 -44 -51 -72 -86 -0 -0 -0 -0 -0 -0 -0 -0 -0 -0
-167 -0 -0 -0 -0 -0 -0 -410 -410 -482 -511 -374 -364 -355 -437 -516 -21 -0 -0 -15 -479 -146 -42 -112 -127 -105 -81 -69 -72 -93 -0 -0 -41 -0 -0 -0 -0 -0 -0 -0 -0 -0 -0
-0 -0 -0 -0 -0 -0 -0 -406 -289 -283 -215 -245 -642 -514 -0 -0 -0 -0 -0 -68 -162 -66 -114 -120 -122 -95 -0 -0 -0 -0 -0 -0 -0 -0 -0 -0 -0 -0 -0 -0 -0 -0 -0
-131 -0 -0 -0 -0 -0 -0 -347 -216 -275 -303 -383 -303 -318 -0 -0 -0 -0 -188 -119 -56 -131 -119 -0 -0 -0 -0 -0 -0 -0 -0 -0 -0 -0 -0 -0 -0 -0 -0 -0 -0 -0 -0
-154 -0 -0 -0 -0 -0 -0 -203 -182 -209 -339 -461 -481 -544 -0 -0 -0 -142 -219 -45 -38 -0 -0 -0 -0 -0 -0 -0 -0 -0 -0 -0 -0 -0 -0 -0 -0 -0 -0 -0 -0 -0 -0
-249 -194 -0 -0 -0 -0 -173 -190 -154 -185 -283 -392 -470 -0 -0 -390 -233 -0 -0 -0 -0 -0 -0 -0 -0 -0 -0 -0 -0 -0 -0 -0 -0 -0 -0 -0 -0 -0 -0 -0 -0 -0 -0
-0 -0 -0 -0 -0 -4 -76 -128 -124 -184 -305 -0 -0 -0 -263 -0 -0 -0 -0 -0 -0 -0 -0 -0 -0 -0 -0 -0 -0 -0 -0 -0 -0 -0 -0 -0 -0 -0 -0 -0 -0 -0 -0
-0 -0 -0 -2 -0 -1 -35 -51 -104 -163 -0 -0 -0 -0 -0 -0 -0 -0 -0 -0 -0 -0 -0 -0 -0 -0 -0 -0 -0 -0 -0 -0 -0 -0 -0 -0 -0 -0 -0 -0 -0 -0 -0
-12 -0 -0 -0 -0 -8 -26 -27 -127 -0 -0 -0 -0 -0 -0 -0 -0 -0 -0 -0 -0 -0 -0 -0 -0 -0 -0 -0 -0 -0 -0 -0 -0 -0 -0 -0 -0 -0 -0 -0 -0 -0 -0
-0 -0 -0 -0 -0 -7 -13 -0 -0 -0 -0 -0 -0 -0 -0 -0 -0 -0 -0 -0 -0 -0 -0 -0 -0 -0 -0 -0 -0 -0 -0 -0 -0 -0 -0 -0 -0 -0 -0 -0 -0 -0 -0
-0 -0 -0 -0 -2 -12 -0 -0 -0 -0 -0 -0 -0 -0 -0 -0 -0 -0 -0 -0 -0 -0 -0 -0 -0 -0 -0 -0 -0 -0 -0 -0 -0 -0 -0 -0 -0 -0 -0 -0 -0 -0 -0
Wind_Speed
6 6 23 29 19 20 23 24 24 22 21 20 18 16 19 20 18 21 21 19 15 14 11 11 10 4 5 4 4 5 6 7 5 17 18 16 21 20 26 6 16 11 12
6 9 14 24 21 22 23 27 26 28 26 25 22 19 19 20 18 18 21 17 16 17 16 11 8 5 8 8 6 6 6 6 8 20 20 20 22 24 24 17 7 5 15
15 4 5 4 24 25 26 27 29 30 30 29 26 25 24 24 23 23 24 22 20 17 13 11 9 9 12 10 7 6 6 7 6 6 16 17 20 20 21 22 7 8 15
14 5 7 7 27 26 27 28 27 27 29 28 26 28 26 25 24 23 23 22 18 14 11 11 11 11 12 12 10 9 9 8 7 9 12 13 16 21 20 19 23 7 18
8 1 4 9 30 28 28 29 29 28 28 27 24 24 25 25 25 24 21 20 18 16 14 11 12 12 12 10 9 9 8 8 8 7 11 20 23 24 24 22 23 24 25
10 13 23 28 28 27 28 30 30 28 28 26 26 25 25 26 26 24 22 20 20 18 16 12 12 11 10 9 11 10 8 8 8 7 8 9 25 22 20 24 24 26 25
15 15 22 30 34 33 31 28 28 27 26 22 22 23 25 23 21 21 21 22 21 17 15 13 9 7 9 8 11 11 9 9 7 6 7 9 11 8 17 24 20 19 21
16 16 13 26 30 31 36 35 32 12 14 14 18 7 9 19 14 13 14 10 16 9 10 10 8 7 8 9 7 7 9 6 5 1 3 6 6 3 3 2 7 12 18
17 18 18 19 25 29 33 33 37 31 28 22 19 14 11 8 7 6 6 9 6 4 3 3 1 1 2 3 3 5 3 3 3 6 3 5 4 1 4 10 5 9 17
27 26 26 29 31 34 36 35 35 37 30 26 24 17 13 12 10 10 9 9 9 8 8 6 4 5 5 3 2 1 3 3 6 9 12 8 4 4 5 6 8 9 13
27 30 32 34 36 38 38 38 38 36 33 30 28 28 23 21 21 16 15 18 17 16 13 12 13 12 12 16 10 11 11 18 17 17 18 18 17 17 15 12 10 11 13
32 35 36 37 37 39 39 39 40 39 35 31 28 22 22 18 18 22 27 26 22 23 22 20 22 19 16 13 13 15 19 21 23 21 21 22 21 21 21 18 16 14 13
38 39 39 38 38 36 39 40 40 38 37 30 25 24 23 19 20 22 28 31 30 30 26 18 17 17 14 16 15 15 18 23 24 26 25 25 23 23 22 21 20 19 17
36 39 39 38 39 37 34 35 37 37 37 29 25 25 23 23 24 28 37 30 34 30 27 23 22 26 19 20 18 17 19 22 24 27 26 25 23 23 23 22 21 21 21
34 38 40 39 38 37 35 36 36 35 34 30 26 23 23 23 18 11 13 19 25 34 29 7 18 18 17 18 17 17 18 19 20 23 22 25 25 24 23 23 22 22 24
37 38 40 39 38 37 36 36 32 33 34 32 27 21 20 19 14 7 5 1 8 17 6 4 5 13 14 16 12 12 12 14 17 17 19 20 22 23 22 22 22 23 25
38 40 40 39 40 39 38 36 38 31 28 27 22 20 22 15 8 8 7 1 3 2 3 4 9 13 12 13 11 11 14 17 17 19 19 19 20 21 21 23 23 23 25
36 37 39 40 39 39 39 36 32 30 28 24 20 18 19 13 9 6 4 5 5 3 2 4 4 5 7 10 11 12 13 15 17 17 18 19 20 20 22 24 24 25 26
34 39 38 39 38 37 35 32 28 26 22 20 17 16 16 13 9 6 7 5 2 2 3 3 3 5 8 9 10 12 14 16 17 18 20 21 22 21 22 23 24 25 25
35 39 38 39 40 37 33 30 26 22 19 16 14 12 12 11 8 6 4 0 4 4 4 3 5 6 8 9 11 13 15 17 18 19 20 21 22 23 24 24 25 26 27
39 39 38 40 41 38 32 28 23 19 17 13 11 9 8 8 6 3 2 1 2 2 5 4 5 8 10 11 13 14 16 17 19 20 21 23 24 25 25 24 26 26 28
40 39 40 43 42 38 31 25 21 18 15 12 9 8 7 6 5 3 2 3 2 3 4 6 8 9 11 12 13 15 16 18 20 21 22 23 24 24 25 26 27 29 30
42 47 48 45 40 35 26 23 19 17 15 12 10 10 8 5 3 3 3 4 3 4 6 8 9 11 13 15 16 16 18 20 20 21 22 24 25 26 26 28 29 30 31
45 45 42 41 37 31 26 21 18 17 14 13 12 11 8 6 5 6 4 3 3 5 7 9 11 12 13 15 17 18 18 19 20 21 22 23 26 27 28 29 30 31 32
43 38 37 34 32 23 19 18 17 16 17 16 13 12 10 8 8 5 4 4 6 7 8 10 11 13 14 15 15 17 19 20 20 21 22 23 25 27 27 28 30 31 32
23 24 21 26 21 17 19 18 19 18 17 14 13 13 11 9 6 6 6 8 8 8 9 11 12 13 14 15 16 18 20 21 23 23 24 25 26 28 28 30 31 31 33
Wind_Direction
214 196 196 204 186 187 196 199 200 198 195 194 193 192 199 202 203 210 209 208 198 202 193 197 202 166 165 126 86 81 123 123 115 332 334 326 302 286 254 152 186 182 191
215 193 187 192 191 194 200 206 205 208 207 207 202 198 199 200 199 201 206 197 195 201 204 194 184 133 164 154 107 109 123 110 127 240 318 317 297 265 248 197 164 165 191
290 262 282 256 196 204 207 210 210 212 215 213 209 208 209 209 208 209 212 210 201 200 198 191 182 160 178 154 116 95 77 45 66 104 308 343 285 284 283 267 44 165 194
299 299 295 287 205 207 212 212 209 208 212 211 209 213 210 209 207 206 205 205 201 195 187 182 181 171 174 166 150 146 126 111 71 23 356 341 258 278 262 249 279 1 219
311 216 168 294 231 211 212 217 215 211 210 209 205 206 207 207 206 205 201 201 200 196 189 179 183 177 173 161 148 150 129 118 112 107 4 314 299 289 292 318 313 307 298
312 295 279 266 215 211 214 218 219 215 213 208 208 207 207 208 209 204 200 198 200 198 194 182 179 180 171 161 166 163 148 141 144 138 155 165 285 307 323 315 316 309 311
321 301 287 258 246 236 227 216 216 213 212 201 200 201 205 202 196 197 198 201 201 193 189 181 171 160 167 162 175 175 166 173 166 161 173 177 186 171 334 317 334 334 327
330 327 333 282 274 276 256 233 225 239 211 210 203 214 203 200 193 193 193 192 196 187 185 177 167 158 158 164 163 166 177 174 180 179 187 188 176 119 105 36 354 352 341
331 334 332 320 307 301 285 280 273 282 282 284 283 276 273 267 232 239 268 292 277 272 216 191 181 133 131 152 170 177 191 216 198 195 218 208 207 213 357 350 343 343 339
306 306 312 308 304 297 289 287 285 279 284 283 281 272 251 245 248 242 247 265 258 269 287 276 273 303 309 307 305 275 243 239 326 328 323 321 295 299 312 323 336 330 333
307 305 304 304 302 296 292 288 286 288 285 282 280 277 275 277 278 271 271 279 280 283 285 289 297 302 304 305 306 312 316 319 320 319 317 317 317 321 325 325 320 318 321
301 300 300 301 303 297 293 290 286 284 285 285 280 279 276 278 289 295 285 281 280 281 287 292 296 304 303 301 305 309 313 313 312 311 311 311 314 315 317 319 318 315 314
297 295 298 301 301 302 297 293 288 284 282 283 282 271 272 272 278 292 296 287 281 276 282 288 294 306 314 303 309 316 315 309 310 303 305 308 311 315 319 322 322 323 323
302 295 296 297 298 301 302 298 293 287 281 280 277 275 277 281 284 289 303 279 281 278 288 286 286 284 309 305 308 315 314 315 311 299 303 307 312 314 318 323 326 327 326
298 294 292 294 297 300 300 298 295 291 286 279 275 276 278 280 265 259 292 307 274 261 282 253 287 296 305 313 314 316 316 315 311 304 313 311 313 317 323 327 328 328 325
290 290 290 292 294 297 299 299 300 296 288 282 277 270 280 288 281 243 249 10 171 182 204 245 302 311 315 316 324 338 331 323 318 325 325 325 322 324 327 332 334 332 328
286 286 286 289 292 293 294 295 293 298 296 288 276 269 279 284 270 192 179 175 237 224 221 291 316 321 323 321 332 350 337 321 329 333 334 334 335 334 334 334 334 334 329
283 284 285 287 290 290 290 291 293 293 290 290 282 269 272 274 272 260 262 315 325 326 322 332 356 353 333 332 339 348 350 343 341 340 339 339 340 341 340 336 336 331 328
282 281 285 285 287 288 288 289 289 289 289 287 282 270 259 265 267 263 285 283 306 18 23 40 59 337 343 356 3 357 350 345 342 335 333 334 335 336 336 336 335 334 333
281 281 284 284 283 283 284 284 282 282 279 280 277 254 245 253 247 255 284 12 95 81 84 58 17 1 10 9 3 357 351 345 345 344 340 337 336 336 333 333 333 331 331
279 281 283 280 277 276 277 277 273 271 265 263 267 238 226 216 196 207 224 141 86 60 77 41 16 13 10 8 2 357 350 346 346 345 342 338 337 335 338 338 335 334 331
279 280 278 271 271 270 267 266 262 256 250 243 232 212 194 205 220 218 142 109 100 70 53 46 26 14 8 2 359 356 349 344 342 340 339 338 337 338 337 334 333 332 331
279 271 264 264 265 264 256 254 247 240 230 219 196 194 192 191 188 167 131 108 94 66 51 42 35 19 5 1 356 352 349 345 343 345 343 342 340 338 338 335 334 332 332
271 264 263 260 257 255 248 238 229 217 208 190 182 186 175 159 159 133 146 108 74 53 42 33 23 17 8 360 356 356 356 355 354 351 348 346 341 340 338 337 336 335 335
261 262 257 252 250 244 225 211 203 198 183 176 177 172 169 159 139 170 162 109 76 58 44 32 22 16 10 8 5 2 359 358 357 355 353 350 348 343 342 340 339 339 337
257 258 244 247 238 204 189 186 176 170 174 173 173 165 156 139 149 133 108 90 77 57 40 30 24 17 12 10 8 6 3 359 355 353 351 350 346 345 344 342 341 340 338